Location: Ashtead
(51.3000°N, 0.3000°W)
Time: 19:03:16
(UTC+00:00)

Cosmos 883 Rocket - Pass Details

Date: 26 September 2023
Orbit: 950 x 995 km, 83.0° (Epoch: 08 December)

Event Time Altitude Azimuth Distance (km) Brightness Sun altitude
Rises 03:51:16 0° 348° (NNW) 3,701 7.7 -19.3°
Reaches altitude 10° 03:53:47 10° 347° (NNW) 2,755 7.0 -19.0°
Maximum altitude 04:00:06 75° 264° (W) 1,031 4.4 -18.1°
Drops below altitude 10° 04:06:24 10° 180° (S) 2,755 6.7 -17.2°
Sets 04:08:55 0° 179° (S) 3,701 7.3 -16.8°
